Location: Buckeye Ditch
(40.9104°N, 122.9517°W)
Time: 12:01:53
(UTC+00:00)

Tiros 1 despin weight - Pass Details

Date: 19 May 2025
Orbit: 563 x 601 km, 48.2° (Epoch: 22 June)

Event Time Altitude Azimuth Distance (km) Brightness Sun altitude
Rises 09:42:47 0° 202° (SSW) 2,789 - -25.4°
Reaches altitude 10° 09:45:24 10° 188° (S) 1,901 - -25.2°
Maximum altitude 09:48:50 23° 136° (SE) 1,277 - -24.9°
Exits shadow 09:50:01 20° 112° (ESE) 1,372 ? -24.8°
Drops below altitude 10° 09:52:18 10° 84° (E) 1,927 ? -24.6°
Sets 09:54:57 0° 70° (ENE) 2,838 ? -24.4°
